sat.trackr.live / text

‹ back to catalog

STARLINK-6200

NORAD 56897 · 2023-083X

PAYLOAD ACTIVE UNKNOWN

§ Identity

Operator
Country
US
Launch date
2023-06-12
Launch site
AFETR
Launch vehicle
Mass (kg)
RCS (m²)

Purposes: comms

External: N2YO · Heavens-Above · Gunter

§ Orbital elements

Epoch: 2026-09-19T19:10:17.162400Z

Period
94.27 min
Inclination
43.0047°
Eccentricity
0.0001425
Mean motion
15.27580322 rev/d
Perigee alt
482.1 km
Apogee alt
484.0 km
Semi-major
6,861.2 km
B*
3.8680e-5
RAAN
72.6541°
Arg perigee
268.6099°
Mean anomaly
91.4590°
Rev number
18,138

§ Raw data

STARLINK-62001 56897U 23083X   26262.79880975  .00000802  00000+0  38680-4 0  99902 56897  43.0047  72.6541 0001425 268.6099  91.4590 15.27580322181386

JSON: /api/v1/satellites/56897 · /tle

For live sub-satellite position, see the globe view (requires WebGL).

§ Visibility from observer

Set your observer location to see the next 7 days of passes ≥ 10°. The values pass through the URL so the page stays shareable.

No JS? Fill the form by hand. The geolocation button needs JavaScript.